Vorticity
9 10 9 13 14 13 10 14 13 10 23 14 12 13 9 5 7 7 2 11 15 -3 12 1 12 11 2 8 17 11 15 10 22 1 -25 29 -3 24 26 6 -14 30 29 17
9 8 9 13 14 11 11 21 16 2 21 14 15 15 17 3 6 7 5 1 3 27 4 23 -5 19 9 17 -5 5 10 11 8 9 18 -23 -14 23 27 21 13 -4 15 23
9 7 9 13 11 14 13 16 16 8 9 13 14 13 9 14 5 5 24 -2 8 4 13 21 2 17 18 13 11 13 30 18 65 52 25 24 19 34 45 10 10 19 45 12
8 7 7 12 8 14 8 12 6 9 4 11 12 11 10 9 13 9 6 -7 14 7 1 24 1 6 31 2 11 17 12 1 2 -7 -16 3 -1 15 38 29 17 32 18 -16
8 7 6 9 11 12 14 15 17 4 10 9 12 13 8 8 10 4 3 3 21 11 14 17 15 8 7 -8 21 -5 17 16 -3 -1 -20 -14 -2 3 4 -5 1 -4 17 -4
7 7 7 6 12 6 11 9 10 12 5 8 11 9 6 7 8 5 3 5 20 14 7 20 18 17 6 1 14 24 20 11 -5 12 12 5 -24 7 -1 13 11 17 -2 9
6 7 6 7 5 13 7 15 8 8 10 9 10 10 11 11 11 10 12 8 17 9 10 15 13 22 2 -8 24 13 6 17 30 6 32 12 3 9 -5 -17 6 13 10 12
7 7 7 6 9 6 14 8 15 10 4 9 9 10 10 11 15 18 8 9 13 8 11 19 12 -2 16 3 18 12 14 10 3 23 15 14 -11 1 4 3 -18 8 10 11
7 7 7 6 6 9 7 14 9 10 15 6 9 6 10 12 10 13 21 4 15 16 12 23 1 9 10 -0 5 1 15 22 25 2 9 15 -3 25 25 -1 4 9 10 10
7 7 7 6 6 6 11 6 15 17 10 8 11 14 10 9 10 16 2 14 20 9 13 21 14 3 18 9 14 -1 14 -7 3 15 13 4 18 15 10 17 -9 9 7 9
8 7 7 6 8 6 6 7 5 17 22 2 6 10 12 11 10 11 7 23 2 4 21 13 11 9 8 4 3 11 20 13 9 8 9 1 19 0 18 8 6 8 8 8
9 8 8 6 5 7 8 6 7 9 3 9 8 7 8 11 13 11 12 9 10 9 19 12 8 11 5 11 8 16 -3 18 26 22 12 7 6 5 7 7 6 8 8 9
9 9 9 10 7 6 7 6 8 13 26 -1 14 1 13 2 12 15 14 12 10 13 12 15 10 15 13 19 1 18 -6 7 13 13 3 14 7 7 9 9 8 9 9 9
12 10 8 9 10 9 7 10 10 9 27 -7 10 3 9 14 -7 13 14 13 11 14 11 12 17 23 13 8 8 6 11 10 9 6 2 12 -1 8 8 9 10 10 10 10
10 10 12 9 8 12 8 14 6 6 19 9 17 -10 18 16 2 8 27 18 11 15 14 12 15 10 10 14 11 0 8 6 9 4 5 6 9 10 11 10 10 11 13 12
10 11 10 12 12 11 10 14 6 9 15 11 25 -17 8 12 -4 27 24 19 16 19 14 17 4 15 15 6 2 8 11 10 8 8 11 14 12 11 10 10 10 11 11 12
10 11 11 12 18 11 9 12 15 6 19 14 16 -7 3 -1 9 28 19 22 22 17 15 8 17 22 -8 -8 7 10 6 14 11 12 12 13 11 12 12 11 11 10 9 10
9 11 10 15 21 5 15 16 4 23 19 26 -2 -4 23 -7 21 22 21 11 16 13 16 12 14 8 5 -18 3 12 14 15 13 13 13 12 12 12 11 10 9 10 9 9
12 10 13 21 7 15 20 9 1 21 11 15 -22 16 25 2 18 14 24 10 17 10 9 10 21 3 -8 -16 10 21 16 13 14 13 12 13 13 12 11 9 9 9 9 10
14 12 18 12 14 18 15 -0 8 7 2 1 -11 9 5 22 17 13 36 10 10 11 -4 16 14 8 -8 -3 20 16 14 12 12 12 12 11 11 9 9 8 7 6 6 6
14 14 17 20 18 19 20 -1 30 19 17 -17 3 9 9 23 12 21 19 11 11 9 -12 22 9 -1 -4 12 16 10 10 10 10 12 12 10 9 8 7 6 5 4 5 6
14 20 26 17 19 11 14 -3 3 17 -12 3 9 7 15 18 22 24 -2 15 10 15 19 14 8 -20 7 16 16 10 8 7 10 12 14 17 16 13 11 11 12 12 12 13
21 28 13 21 -1 9 4 7 -16 9 7 10 13 8 28 7 22 14 23 10 -5 32 10 11 -20 -10 16 18 17 11 6 3 3 7 7 20 21 20 16 13 12 12 13 13
27 32 4 1 9 -7 7 13 13 8 10 12 11 15 27 4 26 10 19 -0 25 6 13 -20 7 20 22 18 15 11 5 -0 1 0 4 4 23 19 16 14 14 12 12 13
29 21 1 -3 8 12 12 14 11 9 11 12 12 26 24 21 20 3 19 11 10 -3 -32 11 -1 5 16 25 18 14 8 2 -1 -1 -0 2 13 20 15 13 13 14 14 14
15 -5 5 14 14 9 12 12 9 11 12 10 20 18 4 11 12 7 12 12 3 -22 4 11 4 2 7 5 16 22 14 8 5 2 3 1 4 22 13 11 15 16 15 14
5 -7 15 16 10 8 14 13 7 12 15 10 36 15 2 23 8 6 -3 -10 6 7 10 9 11 6 5 5 9 10 18 15 10 7 6 3 5 21 13 12 16 15 13 16
Height
3073 3065 3057 3050 3044 3039 3036 3031 3025 3019 3015 3013 3006 3007 3007 3008 3006 3004 3000 2998 2994 2991 2987 2984 2981 2978 2974 2971 2966 2960 2958 2954 2953 2953 2951 2950 2947 2944 2943 2940 2943 2942 2949 2983
3073 3066 3058 3052 3046 3040 3035 3030 3026 3023 3019 3013 3012 3012 3010 3009 3007 3004 3000 2998 2996 2993 2989 2986 2982 2978 2975 2971 2966 2962 2959 2955 2955 2957 2956 2953 2947 2947 2943 2941 2946 2952 2950 2980
3074 3067 3060 3054 3048 3042 3039 3033 3029 3024 3020 3017 3016 3013 3012 3010 3007 3005 3002 3000 2996 2993 2989 2986 2982 2976 2974 2971 2968 2964 2962 2959 2956 2963 2969 2967 2961 2949 2938 2938 2944 2960 2961 2973
3075 3068 3061 3055 3050 3045 3043 3035 3031 3027 3023 3019 3017 3015 3013 3011 3008 3006 3003 3001 2995 2991 2989 2985 2981 2977 2974 2972 2969 2967 2966 2966 2964 2965 2966 2962 2958 2958 2948 2946 2955 2958 2966 2968
3076 3069 3063 3057 3052 3046 3046 3037 3034 3030 3026 3024 3021 3018 3014 3011 3009 3006 3003 2999 2995 2991 2988 2985 2981 2979 2976 2974 2971 2969 2969 2970 2969 2969 2967 2965 2962 2959 2954 2957 2964 2967 2966 2974
3076 3071 3065 3059 3054 3050 3044 3038 3035 3033 3030 3026 3023 3018 3015 3012 3009 3007 3003 2999 2995 2992 2989 2985 2982 2980 2979 2978 2975 2971 2970 2971 2971 2970 2970 2968 2971 2977 2975 2973 2970 2970 2967 2970
3078 3073 3066 3062 3057 3051 3046 3041 3038 3034 3031 3027 3024 3021 3017 3013 3009 3006 3003 2999 2996 2993 2989 2986 2984 2981 2979 2978 2977 2973 2972 2970 2970 2970 2968 2977 2982 2981 2979 2977 2976 2976 2972 2970
3079 3074 3068 3064 3059 3053 3049 3045 3040 3036 3032 3029 3027 3023 3018 3015 3010 3007 3002 2999 2996 2992 2989 2985 2983 2981 2980 2979 2977 2975 2972 2970 2971 2972 2975 2983 2983 2981 2980 2978 2977 2974 2976 2977
3080 3075 3070 3065 3061 3055 3051 3047 3042 3037 3034 3030 3026 3023 3019 3015 3011 3008 3004 3000 2996 2992 2988 2986 2986 2984 2983 2980 2979 2977 2975 2973 2972 2973 2976 2981 2983 2981 2981 2980 2981 2979 2979 2978
3080 3076 3072 3067 3063 3058 3054 3049 3044 3039 3036 3033 3029 3024 3020 3016 3012 3007 3003 3000 2997 2994 2990 2988 2988 2988 2986 2984 2982 2979 2977 2975 2975 2976 2978 2982 2981 2980 2980 2981 2987 2979 2977 2975
3081 3076 3073 3068 3064 3059 3055 3051 3046 3042 3037 3034 3029 3025 3022 3018 3013 3009 3006 3002 2999 2994 2992 2991 2991 2990 2989 2988 2987 2984 2982 2980 2980 2980 2981 2985 2982 2981 2982 2983 2980 2978 2976 2975
3081 3077 3073 3068 3065 3060 3055 3051 3047 3042 3039 3036 3032 3027 3022 3018 3014 3011 3006 3004 3000 2998 2996 2994 2993 2992 2991 2989 2988 2987 2987 2986 2985 2985 2986 2985 2983 2983 2982 2981 2980 2978 2977 2975
3081 3077 3072 3068 3064 3060 3055 3051 3047 3043 3039 3036 3031 3026 3023 3019 3015 3011 3009 3005 3002 2999 2997 2995 2993 2992 2992 2990 2991 2990 2989 2988 2988 2988 2987 2985 2984 2982 2980 2978 2977 2975 2974 2971
3080 3076 3072 3067 3063 3059 3055 3051 3047 3044 3039 3036 3033 3029 3025 3020 3016 3012 3008 3004 3001 2999 2997 2995 2994 2993 2993 2992 2993 2992 2992 2990 2989 2988 2986 2984 2982 2980 2978 2975 2973 2971 2969 2967
3079 3075 3071 3066 3062 3058 3054 3050 3047 3043 3042 3037 3033 3030 3025 3020 3015 3010 3005 3002 3000 2998 2997 2996 2995 2994 2994 2994 2993 2993 2992 2991 2989 2987 2985 2983 2981 2978 2976 2974 2972 2970 2968 2965
3078 3074 3069 3064 3060 3056 3052 3048 3046 3042 3038 3034 3032 3029 3024 3019 3015 3009 3003 3000 2998 2998 2997 2996 2995 2995 2995 2995 2994 2993 2991 2988 2986 2984 2982 2979 2977 2975 2973 2972 2969 2967 2965 2963
3076 3072 3067 3062 3058 3055 3052 3050 3046 3041 3038 3035 3031 3028 3024 3019 3015 3007 3002 3000 2998 2997 2997 2997 2996 2995 2996 2995 2994 2992 2989 2986 2983 2981 2979 2977 2974 2972 2971 2968 2966 2964 2961 2959
3074 3070 3065 3060 3056 3053 3050 3046 3044 3041 3038 3034 3033 3031 3022 3018 3012 3007 3002 3001 2999 2999 2998 2998 2997 2997 2997 2996 2993 2990 2987 2984 2981 2979 2976 2974 2972 2970 2967 2966 2964 2962 2960 2958
3072 3067 3063 3059 3055 3052 3050 3046 3043 3040 3040 3035 3032 3027 3021 3016 3011 3007 3003 3002 3000 3000 2999 2999 2999 2997 2997 2996 2991 2987 2984 2981 2979 2976 2973 2971 2969 2967 2966 2963 2961 2958 2956 2954
3069 3064 3061 3056 3054 3050 3048 3045 3044 3039 3037 3034 3031 3026 3021 3017 3010 3005 3003 3002 3001 3000 3001 2999 2998 2997 2996 2993 2989 2985 2982 2979 2976 2974 2972 2969 2967 2964 2962 2960 2957 2954 2952 2949
3068 3063 3059 3056 3053 3050 3047 3046 3045 3041 3039 3034 3031 3026 3020 3014 3010 3006 3004 3001 3000 3000 3001 2998 2997 2997 2995 2991 2986 2983 2980 2977 2974 2971 2968 2965 2963 2960 2957 2955 2952 2949 2946 2943
3067 3062 3058 3055 3053 3051 3051 3049 3046 3043 3040 3036 3030 3024 3019 3013 3008 3005 3003 3001 3001 3000 2998 2997 2997 2996 2992 2988 2984 2981 2978 2975 2972 2968 2964 2960 2957 2953 2950 2947 2945 2942 2939 2937
3065 3061 3058 3057 3057 3056 3053 3051 3048 3044 3040 3034 3028 3023 3018 3012 3010 3006 3004 3002 3001 3000 2998 2997 2997 2993 2988 2984 2981 2978 2975 2972 2968 2965 2961 2956 2951 2947 2944 2941 2938 2935 2932 2930
3066 3062 3062 3061 3061 3058 3054 3051 3046 3042 3036 3032 3027 3021 3018 3013 3009 3007 3004 3003 3000 2998 2998 2997 2993 2988 2983 2979 2976 2974 2971 2968 2964 2960 2956 2952 2946 2942 2938 2935 2932 2928 2926 2923
3068 3066 3065 3063 3060 3056 3052 3048 3043 3039 3034 3030 3024 3018 3016 3012 3010 3009 3006 3004 3001 2999 2997 2994 2989 2984 2979 2975 2972 2969 2966 2963 2960 2956 2952 2947 2942 2937 2933 2929 2926 2922 2919 2916
3069 3067 3065 3061 3057 3053 3049 3045 3042 3037 3033 3028 3023 3019 3016 3014 3013 3011 3008 3006 3001 2997 2993 2989 2984 2980 2975 2971 2967 2963 2960 2957 2953 2950 2946 2941 2936 2931 2927 2923 2919 2915 2911 2909
3069 3065 3061 3058 3054 3051 3047 3043 3039 3035 3031 3027 3023 3021 3018 3016 3012 3009 3006 3004 2999 2993 2989 2984 2979 2973 2969 2965 2961 2957 2953 2950 2946 2943 2939 2935 2931 2925 2921 2917 2913 2909 2905 2902